Wind_Speed
66 66 67 68 68 69 70 70 71 71 72 73 73 74 74 75 76 77 77 77 78 78 78 79 79 79 79 80 80 80 80 80 80 79 79 78 78 77 77 77 77 77 76 77 78 78 79 79 81 83 85 85 86 87 87 87 89 91 92 94 96 97 97 98 98 99 99 99 99 99 99 98 98 97 97 97 97 97 97 96 96 95 94 94 93 93 92 91
63 64 65 66 67 68 68 69 69 70 70 71 72 72 73 73 74 75 76 76 76 77 77 78 78 78 78 79 79 79 79 79 78 78 78 77 77 77 76 76 76 75 74 75 76 77 76 76 78 80 82 83 84 85 84 85 86 88 90 92 94 95 94 95 96 97 97 97 97 97 97 96 96 95 95 95 95 95 95 95 94 93 92 91 91 91 91 91
61 62 63 64 65 66 67 68 68 69 69 70 70 71 72 73 73 74 74 74 74 75 76 76 77 77 77 78 78 78 78 78 77 76 76 76 76 76 75 76 75 74 73 73 74 75 75 75 76 78 79 80 81 82 82 82 83 85 86 90 92 92 91 93 94 95 95 95 95 95 94 94 93 93 93 93 93 93 93 93 92 91 90 90 90 90 90 90
60 61 62 62 63 64 66 66 67 68 68 69 69 70 71 72 72 73 73 73 73 74 74 75 75 76 76 76 77 77 77 77 76 76 76 75 75 75 75 75 74 73 73 73 73 73 73 74 75 76 77 77 78 79 79 80 80 81 83 88 90 88 88 90 92 92 92 92 92 92 92 91 91 91 91 91 91 91 90 90 90 89 89 89 89 88 88 88
58 59 60 60 61 62 63 64 65 66 66 67 68 69 70 71 72 72 72 72 72 73 73 73 74 74 75 75 75 76 76 76 75 75 75 75 74 74 74 74 74 73 73 73 72 72 72 72 74 75 75 75 75 75 76 76 76 77 81 85 86 85 85 87 87 88 88 88 89 89 88 88 88 88 88 88 88 88 87 88 87 87 86 87 87 87 87 86
56 57 57 58 58 59 60 61 63 64 65 66 66 67 68 70 71 72 72 72 72 72 73 73 73 73 73 74 74 75 75 74 75 75 75 74 74 74 74 74 73 73 73 72 72 71 71 71 72 73 74 73 72 73 73 72 71 73 78 82 82 81 82 83 83 84 84 84 85 85 85 85 85 85 85 85 85 85 85 84 84 83 83 84 84 84 83 82
54 54 55 55 56 56 57 59 60 62 63 64 65 66 67 68 69 70 71 72 72 72 72 72 73 73 73 73 74 74 74 73 73 74 74 74 74 74 73 73 73 72 72 72 72 71 71 71 72 72 72 72 71 72 72 70 68 71 75 78 78 77 78 78 78 79 79 80 82 82 82 82 82 81 81 80 80 81 80 80 79 79 80 80 81 81 80 79
51 51 52 52 53 54 55 56 58 59 61 62 63 64 65 66 67 68 69 70 71 72 72 73 73 73 73 73 73 73 73 72 72 73 73 73 73 73 73 72 72 72 71 71 71 71 71 71 71 71 71 70 69 70 70 68 67 69 73 74 74 73 75 75 75 76 77 77 78 78 78 79 78 77 76 75 76 76 75 74 74 75 76 78 78 77 76 75
49 49 49 50 51 51 52 54 55 56 58 59 61 62 64 64 65 66 67 68 69 70 71 72 72 73 73 73 73 73 72 72 72 72 72 73 73 72 72 72 72 71 71 71 71 71 71 71 71 71 70 69 68 68 67 66 66 69 71 71 71 71 74 74 73 74 75 74 74 74 75 75 73 71 70 70 71 71 70 70 71 72 74 75 74 73 71 71
47 47 47 48 48 49 50 51 52 54 55 57 58 60 61 63 63 64 65 66 67 68 69 70 71 72 72 73 73 72 72 71 71 72 72 72 72 71 71 71 71 71 71 71 71 71 71 70 70 69 68 68 67 67 66 65 66 69 70 70 70 71 73 73 72 72 71 71 70 70 71 70 68 67 66 66 66 66 66 67 68 70 71 71 70 68 67 66
45 45 45 45 46 47 48 49 50 51 53 54 55 57 59 60 62 62 63 64 65 66 67 68 69 70 71 72 72 72 72 71 71 71 71 71 71 71 70 70 70 70 70 70 70 70 69 69 68 68 68 67 67 67 66 66 67 68 69 69 69 70 71 71 71 70 69 68 68 67 67 66 64 64 63 63 62 62 64 65 66 67 68 67 66 64 63 64
44 43 43 44 44 45 46 47 48 50 51 52 53 55 56 58 59 60 62 63 63 64 65 66 67 67 68 69 69 71 70 70 70 71 71 70 70 70 70 69 69 69 69 69 68 68 67 67 67 68 68 67 68 68 67 67 67 68 68 68 68 69 70 70 70 69 67 66 66 65 63 62 63 62 61 60 60 62 63 64 66 67 67 66 64 62 63 65
42 42 41 42 42 43 44 45 47 48 49 50 51 53 54 56 57 58 60 61 61 62 63 64 65 65 65 66 67 68 68 68 69 70 70 70 69 69 69 69 68 68 68 67 67 66 66 66 67 67 67 68 68 68 67 67 67 67 67 67 68 69 70 71 70 68 66 65 64 62 61 62 64 62 61 60 60 63 64 65 67 68 67 65 63 63 65 66
42 41 40 40 41 41 42 44 45 46 47 48 49 51 52 54 55 56 58 59 59 60 61 62 62 63 63 64 65 65 65 66 67 68 68 68 68 68 68 68 67 67 66 65 65 65 65 65 65 66 66 67 67 67 67 66 67 67 67 67 68 69 70 71 70 67 66 64 63 62 61 64 67 63 62 61 61 64 66 67 69 69 67 65 64 64 66 67
41 40 39 38 39 40 41 42 44 45 45 46 48 49 50 52 53 55 56 57 58 59 60 60 60 61 61 62 63 62 62 64 65 65 66 66 66 66 66 66 66 65 64 64 63 63 62 63 64 64 65 66 66 66 66 65 66 66 66 67 68 70 71 71 69 67 67 65 64 63 62 66 69 65 63 62 62 65 66 67 69 68 67 66 65 65 65 66
41 39 38 37 37 38 39 40 42 43 44 45 46 47 49 50 52 53 54 55 56 57 58 58 59 59 59 60 61 60 60 61 62 63 64 64 64 64 64 64 64 63 62 62 61 61 61 62 62 62 63 64 63 63 64 64 65 65 66 67 68 69 70 69 68 68 68 66 64 63 63 66 69 66 63 61 62 64 65 67 68 67 67 65 64 64 63 63
40 39 38 36 36 37 38 39 41 42 43 43 44 46 47 49 50 51 53 54 55 56 57 57 57 57 57 59 59 58 58 59 61 61 61 62 62 62 62 62 61 61 61 60 60 60 60 61 61 61 61 61 61 61 62 62 64 65 65 65 66 68 68 68 67 67 67 66 64 63 63 65 67 65 62 61 61 63 65 65 66 66 65 64 62 61 59 59
40 38 37 36 35 36 36 38 40 41 42 42 42 44 45 47 48 50 51 53 54 56 55 55 56 56 56 57 58 57 57 58 59 59 59 60 60 60 60 60 60 60 59 59 59 59 59 60 60 60 60 61 61 61 61 62 62 62 62 63 63 66 67 67 66 65 65 65 64 63 62 63 64 64 62 61 61 63 64 64 64 64 63 61 59 57 56 56
40 38 36 35 35 35 35 37 38 40 41 41 41 42 44 46 48 49 50 52 53 54 54 55 55 56 56 57 57 57 56 56 57 57 57 57 57 57 57 58 58 58 58 58 57 58 58 59 59 60 61 61 60 60 60 60 59 59 60 61 63 65 66 65 64 63 64 64 64 63 61 61 62 61 60 59 60 61 62 62 61 61 59 57 55 53 52 52
39 38 36 35 34 34 34 36 37 39 39 40 40 41 42 45 46 47 49 50 51 53 53 54 55 55 56 56 57 57 56 55 55 55 55 55 55 55 55 55 56 56 56 55 55 56 57 57 59 60 59 59 58 58 58 57 57 58 59 61 63 64 64 63 62 62 63 63 63 61 59 59 59 59 58 57 58 59 59 59 57 56 55 53 50 49 49 50
39 38 35 34 33 33 33 35 36 37 38 39 39 40 41 43 44 46 47 48 50 52 52 53 54 54 56 56 57 57 56 55 55 54 54 54 53 53 53 53 53 53 53 53 54 55 55 56 57 57 56 56 56 56 56 55 56 57 59 61 62 62 62 61 61 60 61 61 60 58 57 57 56 55 55 55 55 55 55 54 53 52 51 49 47 47 48 49
38 38 36 34 33 32 33 33 35 36 37 38 39 39 40 41 42 44 45 47 49 51 51 52 53 54 55 55 56 56 56 55 54 53 54 53 52 52 52 52 52 52 52 52 53 53 53 54 54 53 53 53 54 54 54 54 55 56 58 59 59 59 59 59 58 58 58 58 57 55 54 54 53 52 51 52 52 52 51 50 50 49 48 47 46 46 47 50
38 38 36 34 33 32 32 32 34 35 36 38 38 38 38 39 40 42 44 46 48 50 51 51 52 53 54 54 55 55 55 54 53 53 54 53 52 52 51 51 51 51 52 52 52 52 51 51 51 51 51 52 52 52 52 52 54 55 56 56 57 57 56 56 55 55 55 54 54 52 51 51 51 49 48 48 49 49 49 49 48 47 47 47 46 46 48 49
38 37 37 35 33 32 32 32 33 34 35 37 38 37 37 38 39 41 43 45 47 49 51 50 51 52 53 54 55 54 53 53 54 54 53 53 52 52 51 50 50 51 51 51 50 50 49 48 49 49 49 49 49 49 50 51 52 53 54 54 54 54 53 53 53 53 52 51 51 49 48 48 48 47 47 46 47 49 49 49 48 47 46 46 46 46 47 48
38 37 37 36 34 33 31 31 32 33 34 36 37 36 36 36 38 40 42 44 45 48 50 49 50 51 51 53 55 54 53 54 54 54 53 52 52 52 51 50 51 52 51 50 49 48 47 47 47 47 47 47 47 47 48 49 49 50 51 52 51 50 50 50 50 50 48 48 47 45 45 45 46 47 46 46 47 48 48 48 47 46 45 46 47 46 46 46
39 38 37 36 35 34 32 31 32 32 34 35 35 35 35 36 38 39 40 42 44 46 48 48 49 50 50 53 55 53 53 54 54 54 53 52 53 52 51 51 52 51 50 50 48 47 46 46 46 46 46 46 46 46 46 47 48 49 49 49 47 46 46 47 47 46 45 45 44 43 43 43 44 46 47 47 47 47 47 47 46 46 46 47 46 45 44 45
39 39 38 37 35 34 33 32 31 32 33 33 33 34 35 36 37 38 39 41 43 45 46 47 48 49 50 53 54 53 53 54 53 54 54 53 53 52 52 53 52 51 50 49 47 47 47 46 46 45 45 45 46 46 46 46 47 48 48 47 45 44 45 45 45 45 44 44 43 43 44 43 43 46 47 47 46 46 46 46 46 46 47 47 46 45 44 44
40 39 39 38 36 35 34 33 32 32 33 32 32 32 34 36 38 38 39 41 43 43 44 46 47 48 49 51 52 53 53 53 53 54 54 53 53 52 53 54 53 51 50 48 48 48 47 46 45 45 45 46 46 46 45 46 47 48 47 45 44 43 44 44 44 45 44 44 44 44 44 43 44 46 47 47 46 46 46 46 46 45 46 47 46 45 43 42
41 40 40 38 37 36 35 34 32 32 33 32 31 31 33 36 38 38 38 41 43 43 43 44 46 47 48 50 52 53 53 52 53 54 53 53 53 54 54 54 53 51 49 49 50 49 48 47 46 46 47 47 47 47 46 46 47 48 46 45 43 43 44 44 44 45 44 44 45 44 44 44 45 47 47 47 46 46 46 45 45 45 46 46 46 44 42 41
42 41 41 39 38 37 37 34 33 33 33 32 32 32 32 35 38 38 38 42 43 43 42 43 44 45 46 48 51 52 52 52 53 53 52 53 53 54 54 53 52 50 50 51 51 50 50 49 48 48 48 48 49 48 47 47 47 47 46 45 44 43 44 45 45 45 45 45 45 45 45 45 45 46 47 46 46 45 44 44 44 45 45 45 45 44 42 42
42 41 42 41 39 38 38 35 33 35 35 33 33 32 31 33 35 37 41 44 43 42 43 42 43 44 44 46 49 50 51 51 51 51 51 52 53 53 53 53 52 51 51 52 53 53 52 51 50 49 49 49 50 49 48 47 47 48 47 46 45 44 44 45 46 45 45 46 46 46 45 45 45 45 45 45 44 43 42 42 43 44 44 45 45 44 43 42
42 41 42 42 40 40 39 35 34 37 36 34 34 33 32 32 33 37 44 46 43 42 42 41 42 42 43 45 46 48 48 49 49 50 51 51 52 52 53 53 53 52 52 53 54 55 53 51 50 50 51 51 50 50 49 48 48 48 48 46 46 45 45 45 46 45 46 46 45 45 44 44 44 44 44 44 44 43 42 42 43 43 44 44 45 44 43 42
41 40 41 43 42 41 38 35 36 38 37 35 35 34 32 31 33 39 45 46 44 42 41 41 42 43 43 44 45 46 47 47 49 49 50 50 51 51 52 53 52 52 52 52 54 55 53 51 51 51 52 51 51 50 50 49 49 49 48 47 46 45 45 45 46 45 45 45 45 45 44 44 43 42 42 43 44 44 43 43 43 43 43 44 45 45 44 43
41 40 41 43 43 42 37 35 37 39 39 37 36 35 33 32 37 42 44 43 41 41 41 41 42 43 43 44 45 45 46 47 48 48 49 49 50 51 52 52 51 51 52 52 53 54 53 52 51 51 52 51 51 51 51 50 49 48 48 47 46 45 45 45 45 45 45 45 46 46 45 43 41 40 41 42 44 45 44 43 42 42 43 44 45 45 45 44
42 41 42 42 43 42 39 37 38 41 41 38 37 36 35 37 41 43 42 40 38 38 41 43 44 44 44 45 45 45 45 46 46 47 48 48 48 50 51 51 51 52 52 51 52 52 53 52 51 51 51 50 51 51 51 50 49 48 47 47 46 46 46 46 46 46 46 46 46 45 43 41 40 40 41 41 42 45 44 43 42 42 42 43 45 45 44 43
43 42 42 42 43 43 41 39 40 42 42 41 37 36 39 42 44 43 41 38 37 38 40 42 44 45 45 46 46 45 45 46 46 46 46 46 48 49 49 50 51 51 50 50 50 51 51 51 51 50 50 50 50 50 50 50 49 48 47 47 47 47 47 47 47 47 46 46 45 44 42 40 40 40 40 39 41 44 44 43 42 42 41 42 43 44 43 42
45 43 43 43 44 44 43 42 41 42 44 42 37 38 43 45 45 44 42 38 37 38 39 40 42 44 46 46 46 46 46 46 45 45 45 45 47 48 48 49 49 49 48 48 48 49 49 50 50 49 49 49 49 48 48 49 48 47 46 46 47 47 46 46 47 47 46 46 45 44 42 41 40 39 39 40 41 43 45 44 43 43 42 41 42 41 40 39
45 43 44 45 46 46 44 43 43 44 45 42 38 41 45 47 47 46 42 39 37 37 38 40 40 41 44 46 47 47 47 47 46 45 45 44 45 46 47 48 48 47 47 47 48 48 48 49 49 49 49 49 49 48 47 48 47 45 45 45 46 47 46 46 47 47 46 46 46 44 43 42 41 41 41 42 43 45 46 45 44 43 42 41 41 39 37 36
46 44 45 47 48 48 46 45 45 45 45 42 42 44 46 49 51 48 43 40 37 36 38 39 39 39 41 44 47 48 48 48 47 46 45 43 43 45 46 47 46 46 46 47 48 48 48 48 49 49 49 49 49 48 48 47 46 45 46 46 46 47 47 46 47 47 46 46 46 45 44 44 44 43 43 44 45 45 46 46 44 43 42 41 40 39 37 36
48 47 47 48 50 51 49 47 46 46 45 44 46 48 48 51 53 49 44 40 37 37 38 39 38 38 39 41 43 46 49 50 49 47 46 45 44 45 46 47 45 44 46 46 47 47 47 47 48 49 49 49 50 49 48 47 47 47 48 48 47 47 48 47 48 47 47 47 47 47 47 47 46 44 44 44 45 45 46 45 45 43 42 41 41 40 39 39
49 50 50 50 52 53 51 49 48 47 47 48 50 51 51 53 53 50 45 40 38 39 40 39 38 38 39 40 41 43 46 49 50 49 48 48 47 47 48 48 46 44 46 47 46 46 46 47 49 50 50 50 51 50 49 48 48 48 49 49 49 49 49 49 49 49 49 49 49 49 49 49 47 45 45 45 46 47 46 46 45 44 43 42 42 42 42 42
51 52 54 54 54 55 53 51 50 49 49 51 53 54 53 53 52 50 47 44 42 42 42 42 39 39 39 40 41 42 42 45 48 50 51 50 50 49 50 51 49 47 47 47 46 45 46 48 50 51 51 51 52 51 50 50 49 49 50 50 49 49 49 50 50 51 51 52 52 51 51 50 49 48 47 47 47 48 48 48 47 46 45 44 44 43 44 45
52 54 56 57 56 56 55 53 52 52 52 53 55 56 54 52 52 53 51 48 45 44 45 44 42 40 39 39 40 41 42 42 44 48 51 52 53 52 51 52 51 51 50 49 47 47 48 50 52 54 53 53 53 51 50 50 50 50 51 51 51 51 51 51 53 53 53 53 52 52 52 52 51 50 50 49 48 49 50 51 50 49 48 47 46 46 46 46
50 52 56 57 56 56 57 56 55 55 55 56 58 57 55 53 54 55 54 50 47 47 47 47 45 42 41 40 40 41 43 43 44 46 48 51 54 55 54 53 53 52 52 52 51 50 51 53 55 56 56 55 54 53 51 52 52 53 54 54 54 54 54 54 55 55 54 53 52 52 53 53 53 53 52 51 50 50 51 52 52 51 50 49 49 49 48 49
44 46 51 53 53 55 58 58 58 58 58 59 60 58 56 55 56 57 55 52 50 51 51 49 47 45 44 43 42 42 43 44 45 46 47 48 51 53 56 56 55 55 54 53 53 53 54 56 57 57 58 57 56 56 56 56 56 56 57 57 57 57 56 56 56 55 55 54 53 53 54 55 55 55 54 54 53 52 52 53 53 53 53 52 52 52 52 52
40 41 44 46 48 52 55 57 59 60 60 61 61 60 58 57 58 58 57 54 53 54 53 50 48 47 46 46 45 44 43 44 46 48 48 47 48 50 54 56 57 57 56 56 56 55 57 58 58 58 60 59 59 59 59 58 58 58 58 59 59 58 58 57 57 56 56 55 54 54 55 56 56 56 56 56 56 55 55 54 54 55 55 55 55 55 55 56
37 37 38 40 42 47 51 52 54 57 59 61 61 60 60 59 59 60 59 57 56 56 55 52 50 49 49 48 47 46 45 46 47 49 49 49 49 49 50 53 55 56 57 58 59 59 60 61 59 59 60 61 60 60 60 60 60 59 60 60 60 60 59 59 58 58 57 56 56 55 55 56 57 57 57 57 57 57 57 56 57 57 58 58 58 58 58 58
33 33 34 35 38 42 46 47 48 51 56 59 60 61 62 62 62 62 61 59 58 58 57 55 52 51 51 50 49 49 48 48 49 50 51 51 51 51 50 50 52 53 55 58 60 61 63 63 63 62 62 63 62 62 62 63 63 62 62 62 63 62 61 61 61 61 60 59 58 58 57 58 58 59 59 59 60 60 60 60 60 60 61 61 61 61 61 61
29 30 30 32 34 37 41 43 43 47 52 56 58 60 62 63 64 64 63 62 61 60 59 57 54 52 52 52 51 51 51 50 50 51 52 52 53 53 52 51 51 51 52 55 57 59 61 63 64 64 65 66 66 65 65 65 65 66 66 66 65 65 65 65 65 65 64 62 62 62 62 62 62 62 63 63 64 64 64 64 64 64 64 64 65 65 65 65
26 26 27 28 30 33 37 39 40 43 47 51 54 56 59 62 64 65 65 64 63 63 62 60 57 55 54 53 53 53 53 53 52 53 53 53 53 54 54 53 53 52 52 53 55 56 57 59 60 61 62 65 66 67 67 67 67 68 69 69 68 67 68 68 68 68 68 66 65 65 66 66 65 66 66 67 68 68 68 68 68 68 68 68 68 68 69 69
23 23 23 24 26 29 32 35 37 40 43 45 48 50 54 57 60 63 64 65 65 64 63 62 60 58 57 56 55 55 55 55 55 55 55 55 54 54 54 55 55 54 54 54 55 56 56 57 57 57 58 60 62 63 64 65 67 67 68 68 67 66 66 66 67 67 67 66 65 65 66 67 67 68 68 69 70 70 71 71 71 71 71 71 71 71 71 71
21 20 19 20 22 24 27 30 34 36 39 40 41 44 48 52 56 59 61 63 63 63 63 63 62 61 60 59 58 58 58 57 57 57 57 56 56 55 56 56 56 56 56 56 56 57 57 58 58 57 58 58 58 59 59 60 60 60 60 61 61 60 59 59 60 61 61 60 60 60 62 64 65 66 67 67 68 69 70 71 72 72 72 72 72 72 72 72
Wind_Direction
269 268 267 267 266 264 263 262 260 259 258 257 256 255 254 254 253 253 253 253 252 252 252 252 251 251 251 251 252 252 252 252 252 252 253 253 253 254 254 254 253 253 252 252 252 252 251 251 252 252 252 253 253 253 253 253 253 254 254 255 255 256 257 258 259 260 261 261 262 263 263 264 265 266 267 267 268 268 269 269 269 270 272 273 274 274 275 275
269 269 268 267 266 265 264 262 261 259 257 256 255 254 253 253 252 252 252 252 252 252 251 251 251 251 251 251 251 251 252 252 252 252 253 253 254 254 254 254 254 254 253 253 253 253 252 252 252 252 252 253 253 254 254 254 254 254 255 256 256 257 258 258 259 260 261 262 262 263 263 264 265 266 266 267 267 267 268 269 270 271 272 273 273 273 274 274
270 269 269 268 267 265 264 262 260 259 257 256 255 254 253 252 251 251 251 251 251 251 251 251 251 251 250 250 250 251 251 252 252 252 253 253 253 254 254 255 255 255 254 254 253 254 253 253 253 253 253 253 253 254 254 254 255 255 256 256 257 258 258 259 259 260 261 261 262 263 263 264 265 265 266 266 267 267 268 270 271 271 272 272 272 273 273 274
271 271 270 268 267 265 263 261 260 259 257 256 254 253 252 251 251 250 250 250 250 250 250 250 250 250 250 250 250 250 250 251 251 252 252 252 253 254 254 255 255 255 255 254 254 254 254 254 254 254 254 254 254 254 254 254 255 256 257 257 258 259 259 259 260 260 261 262 262 263 264 264 264 265 265 266 267 268 269 270 271 271 271 272 272 272 273 273
273 272 271 269 267 264 262 261 260 258 257 256 254 253 252 251 250 250 249 249 249 249 249 250 250 250 250 250 250 250 250 250 251 251 252 252 253 253 254 254 255 255 255 255 255 255 254 254 254 255 255 255 255 255 255 255 256 257 258 258 259 259 259 259 260 261 262 263 263 263 263 263 264 264 265 266 267 268 269 270 270 271 272 272 272 273 273 274
274 274 272 269 266 264 262 261 259 258 257 255 254 253 252 251 250 249 249 248 248 248 248 249 249 250 250 250 250 250 250 250 250 251 251 252 252 253 253 254 254 255 255 256 256 256 256 255 255 255 255 255 256 256 257 257 257 258 258 259 259 260 260 260 261 262 262 262 262 262 263 263 263 264 265 266 267 269 269 270 271 272 273 273 274 274 275 276
276 275 272 269 266 263 262 260 259 258 257 255 254 253 251 250 250 249 249 248 248 248 248 248 248 249 249 249 249 250 249 249 250 250 250 251 251 252 253 253 254 254 255 256 256 257 257 256 256 256 256 256 256 257 257 258 258 258 259 259 260 261 261 261 261 261 261 261 262 262 263 263 264 265 266 268 269 270 270 272 273 273 274 274 274 275 276 277
277 276 273 269 266 263 262 261 259 258 257 255 254 253 251 250 249 249 249 248 248 247 247 247 247 248 248 248 249 249 249 249 249 250 250 250 251 252 252 253 254 254 255 255 256 256 256 256 257 257 258 258 258 258 258 258 258 259 259 260 260 261 261 260 260 260 261 261 263 264 265 265 266 267 268 269 270 271 272 274 274 274 274 274 274 276 277 278
279 277 274 270 266 264 263 261 260 258 257 256 254 253 252 250 249 249 248 248 248 247 247 247 247 247 247 248 248 249 249 249 249 250 250 250 251 251 252 253 253 254 254 255 255 255 256 256 258 259 260 260 260 259 259 259 258 258 258 259 260 260 261 261 261 261 262 263 264 265 266 267 268 269 270 271 272 273 274 274 274 274 274 274 275 276 278 279
280 279 275 271 268 265 263 262 260 258 257 256 255 253 252 251 250 249 248 248 247 247 247 247 247 247 247 247 247 248 249 249 249 249 250 250 251 251 251 252 253 253 254 254 254 255 256 257 258 259 259 259 259 259 259 258 257 257 258 260 260 261 262 262 262 262 263 264 265 266 267 269 270 272 272 272 273 274 274 274 274 273 274 275 276 277 278 279
282 280 276 272 269 267 265 262 260 259 257 256 255 253 252 251 250 249 248 247 247 247 247 247 247 247 246 247 247 247 248 248 249 249 250 250 250 251 251 251 252 252 253 254 254 255 256 257 258 258 258 258 258 258 257 257 257 258 259 260 261 261 262 263 263 263 264 265 266 267 269 271 272 272 272 272 273 273 273 273 273 273 273 274 276 278 279 278
284 282 278 274 271 268 266 263 261 259 257 256 254 253 252 251 250 249 248 247 247 247 246 247 247 247 247 247 247 247 247 247 248 248 249 249 250 250 251 251 251 252 252 253 254 255 256 256 256 256 257 257 257 257 257 257 258 258 259 260 261 262 262 263 264 264 265 266 267 269 270 272 271 270 271 272 272 272 272 272 272 272 273 274 276 277 277 277
285 284 281 276 272 270 267 264 261 259 257 255 254 252 251 250 249 248 248 247 246 246 246 246 246 247 247 247 246 246 246 246 247 247 248 248 249 250 250 251 251 252 252 253 254 254 254 255 255 256 256 256 256 256 257 257 258 258 259 260 260 261 262 263 264 265 266 266 268 269 270 270 269 268 269 270 271 271 271 271 271 271 273 274 276 276 276 276
286 286 283 278 274 271 268 265 262 259 257 255 254 252 251 250 248 247 247 246 246 245 245 246 246 246 246 246 246 246 246 246 246 246 247 247 248 249 250 250 251 251 252 253 253 253 254 254 254 255 255 255 255 256 257 257 257 257 258 259 260 260 261 262 264 265 265 266 266 267 268 268 267 267 268 268 269 269 270 270 271 272 274 275 275 275 276 276
287 287 285 280 275 272 269 266 262 260 257 256 254 252 251 249 248 247 246 245 245 244 244 245 245 245 245 246 246 245 245 245 246 246 246 247 247 248 249 249 250 251 251 252 252 253 253 253 253 253 254 254 255 256 256 256 257 257 257 258 259 259 260 262 263 264 265 265 265 265 265 266 266 267 267 268 268 268 270 270 271 273 273 274 275 275 276 276
287 288 286 282 277 274 270 266 263 260 258 256 254 252 250 249 247 246 245 244 244 244 244 244 244 244 244 245 245 245 244 245 245 245 245 245 246 247 247 248 249 250 250 251 251 251 251 252 252 253 253 255 255 256 256 256 256 256 256 257 258 259 260 262 263 263 264 264 264 264 264 264 266 267 267 268 268 268 269 269 270 271 272 273 274 274 275 276
287 288 288 284 279 275 272 267 263 260 258 256 254 252 250 249 247 246 244 243 243 242 242 243 243 243 243 244 245 244 243 243 244 244 244 244 245 246 246 247 248 249 249 249 249 250 250 251 252 253 254 255 255 255 255 255 255 256 256 257 259 260 261 262 262 263 264 264 264 264 263 264 266 267 267 267 267 267 267 267 269 270 271 271 272 273 274 274
287 288 288 286 281 277 273 268 264 261 259 257 255 252 250 248 247 245 244 242 242 242 241 241 242 241 242 243 243 243 242 243 243 244 244 244 245 245 246 246 247 247 248 248 249 249 250 251 252 253 253 254 254 254 255 255 256 257 259 259 259 260 261 261 262 263 264 264 264 263 262 263 265 266 267 267 266 266 266 266 267 268 269 270 271 272 272 272
286 287 288 287 283 279 274 270 265 262 260 258 256 253 250 248 246 245 244 243 242 241 241 240 240 240 240 241 241 242 242 242 243 244 245 245 245 245 246 246 246 247 247 248 248 249 250 251 251 252 252 253 254 255 256 257 258 259 259 259 258 258 259 260 261 262 263 263 263 263 263 263 264 265 266 266 265 265 265 265 266 267 268 270 271 271 271 272
286 287 288 288 285 280 276 271 266 263 260 258 256 253 250 247 246 245 244 243 242 242 241 240 240 240 240 240 240 241 240 241 242 243 244 244 245 245 245 246 246 247 247 248 248 248 249 250 250 251 253 255 256 257 258 259 259 258 258 257 257 257 258 259 260 260 261 261 262 263 263 263 263 264 264 264 263 263 264 265 266 267 268 269 270 270 270 270
286 286 287 288 286 282 277 272 268 264 261 259 257 254 251 248 247 245 245 244 243 242 241 241 240 240 239 240 240 240 240 240 241 242 243 243 244 244 245 246 246 247 247 247 247 248 248 249 251 253 255 256 257 257 258 258 257 257 257 257 257 258 259 259 259 260 260 261 262 263 263 263 262 262 262 262 262 262 264 265 265 265 266 267 267 267 268 268
285 286 286 287 286 283 278 274 269 265 261 259 257 255 253 250 247 246 244 243 242 242 241 240 240 239 240 240 241 241 241 241 241 241 242 243 243 244 244 245 246 246 246 246 247 247 248 250 252 254 255 255 256 256 257 257 257 256 256 257 258 258 259 259 259 259 260 260 261 261 262 261 261 261 261 261 261 262 262 262 263 263 264 265 265 265 266 267
285 285 285 285 285 283 279 275 270 266 262 258 257 256 254 251 248 246 244 242 241 241 240 240 240 239 239 240 240 240 241 241 241 241 242 242 243 243 243 244 245 245 246 246 247 248 249 250 252 253 254 255 256 257 257 256 256 256 256 256 256 257 258 258 258 258 258 259 260 260 260 260 260 260 259 259 259 260 259 259 260 261 262 263 264 265 265 266
284 284 284 284 284 283 280 276 272 267 263 259 257 255 254 252 250 247 245 243 242 241 240 239 239 239 239 239 240 240 241 241 241 240 241 242 242 243 243 244 245 245 245 246 247 248 249 251 252 253 254 255 256 256 256 255 255 256 256 256 256 257 257 258 258 258 258 258 259 259 260 260 260 259 257 257 257 257 258 258 259 260 261 263 263 263 264 266
284 283 282 283 283 282 280 276 273 269 265 261 258 256 255 254 252 248 246 244 243 242 241 240 239 239 239 239 240 239 240 241 241 241 241 241 242 243 244 244 244 244 245 246 247 248 249 250 252 253 254 255 255 255 255 255 255 255 255 256 256 257 258 258 258 259 259 258 259 258 258 257 258 258 257 256 255 256 258 260 261 262 262 262 262 262 263 265
284 282 281 280 281 281 280 276 273 270 266 263 260 257 254 254 253 250 248 246 243 242 242 240 240 239 239 239 239 239 239 240 241 241 241 241 241 242 242 243 243 244 244 245 246 247 248 249 251 252 253 254 253 253 253 253 254 254 255 255 256 257 257 258 258 259 258 257 257 256 255 255 256 257 257 256 256 257 259 261 262 263 263 262 261 262 262 262
283 281 279 278 278 279 278 276 273 271 268 265 262 258 254 253 253 251 249 247 245 243 242 241 240 239 239 239 240 239 239 239 241 241 241 240 241 242 242 243 243 244 244 245 246 247 248 249 251 252 253 253 253 253 253 254 254 254 255 255 255 256 256 256 256 256 256 256 255 254 253 253 253 255 256 256 257 258 259 260 261 262 262 261 261 260 260 261
281 279 278 276 276 276 276 275 274 271 269 267 264 259 254 252 252 251 249 248 247 244 242 241 240 239 239 240 240 239 239 239 240 241 241 241 241 242 242 243 244 244 245 246 246 247 248 249 250 252 252 252 253 253 253 253 253 254 255 255 255 254 254 254 254 255 255 255 254 253 253 253 252 253 254 256 257 258 259 260 260 261 261 261 261 260 260 261
279 277 275 274 274 273 273 274 273 271 269 267 264 261 256 252 251 251 250 249 247 245 242 241 240 239 239 240 241 240 239 239 240 241 241 242 242 242 242 243 244 245 245 246 246 246 247 248 248 249 250 251 251 252 252 252 253 254 255 255 255 254 254 253 253 253 254 254 254 254 254 253 253 254 255 256 257 258 259 259 259 260 260 261 262 262 262 261
277 276 274 272 271 271 271 271 272 271 269 267 264 260 257 253 251 250 250 248 247 245 243 242 241 240 239 240 241 241 240 240 240 241 242 242 242 243 243 244 244 245 245 246 246 245 245 246 247 248 249 250 251 252 252 252 253 254 255 255 254 253 253 253 252 253 253 254 254 254 254 255 255 256 257 258 258 258 258 259 260 260 261 261 262 263 263 263
275 274 272 270 269 269 269 270 270 269 267 266 264 262 258 255 253 250 248 247 247 246 245 243 243 242 240 241 242 243 243 242 242 243 243 243 243 244 244 244 244 244 244 245 246 245 245 246 247 248 249 250 251 252 253 253 253 254 254 254 253 252 252 253 253 253 253 254 254 255 255 256 256 257 258 259 258 258 257 258 259 259 260 261 262 263 263 263
273 272 271 269 267 266 267 269 268 266 267 266 264 263 260 257 254 249 247 246 245 245 245 244 244 243 242 241 242 243 243 243 243 243 243 243 244 244 245 245 244 244 244 245 246 246 246 247 248 249 250 251 251 252 253 253 252 253 254 253 254 254 253 254 255 255 255 255 255 255 255 256 257 258 259 259 258 257 256 256 257 258 259 261 262 262 262 262
271 270 269 268 267 265 266 268 266 265 265 264 263 262 260 258 254 249 246 246 245 244 245 244 244 243 243 242 242 242 242 242 242 242 242 242 243 244 244 245 245 245 245 245 247 248 247 247 248 249 250 251 251 252 252 252 252 253 254 255 255 255 255 255 255 255 255 255 255 255 255 255 257 258 258 259 259 258 256 256 256 257 258 259 260 261 261 260
270 269 268 267 267 266 265 265 264 263 262 262 261 261 260 257 253 249 248 248 248 247 246 245 244 243 243 243 243 242 242 242 242 242 242 242 242 243 244 244 244 244 244 244 246 248 248 247 247 247 248 250 250 250 251 251 251 253 254 255 254 254 254 253 253 253 253 254 254 255 255 256 256 256 256 257 259 259 257 256 255 255 256 257 257 257 258 258
270 268 267 266 266 266 264 261 259 259 260 260 259 260 258 254 251 251 252 252 252 249 246 244 244 243 242 242 243 243 243 242 242 243 243 242 242 243 243 244 243 243 243 244 245 247 248 248 247 247 247 248 249 250 250 250 251 251 252 252 252 252 252 252 252 252 253 253 254 255 255 255 254 253 253 255 258 260 260 258 256 254 254 255 255 255 256 256
269 267 266 265 264 263 261 259 257 257 259 259 258 258 255 252 252 254 254 253 252 250 247 244 243 243 243 243 243 243 243 243 243 243 243 243 243 243 244 244 244 244 245 245 245 246 247 247 247 247 247 247 248 249 250 250 250 250 250 251 251 251 251 252 252 253 253 253 254 254 254 253 252 252 253 255 258 262 264 261 258 255 253 253 255 255 255 256
268 266 265 263 262 261 260 258 257 257 257 258 258 255 253 254 255 255 255 253 251 250 249 247 245 243 243 244 244 244 244 244 244 243 243 243 243 244 244 244 244 244 244 245 245 245 247 247 247 246 246 247 248 249 250 251 251 251 251 252 253 253 253 253 254 254 254 254 254 253 253 252 251 251 253 254 256 260 262 262 259 256 253 251 252 254 255 256
267 265 264 263 261 260 258 257 256 255 256 257 257 253 252 254 254 254 255 254 252 251 251 250 247 245 244 244 244 244 244 244 244 244 244 244 245 245 245 244 244 243 243 243 243 244 244 246 246 246 245 246 246 247 248 250 250 250 250 250 252 253 254 254 255 256 256 256 255 254 253 252 251 250 251 252 254 255 258 260 259 258 256 254 253 252 251 253
268 265 263 262 262 260 257 256 255 255 255 256 254 251 250 252 253 254 255 255 254 253 252 251 250 248 246 245 244 244 244 244 244 243 244 244 245 246 246 246 245 243 242 241 241 242 243 245 246 246 245 246 245 245 246 247 248 248 249 249 250 252 254 254 256 257 257 258 258 257 255 253 251 250 250 251 253 255 256 258 259 259 259 258 256 253 249 249
270 267 264 261 261 260 258 256 255 254 255 254 252 250 248 250 252 255 255 255 255 254 253 252 251 249 247 245 245 244 244 244 244 243 242 242 242 244 246 247 246 245 244 243 241 242 243 244 245 245 245 245 245 244 244 245 245 246 247 248 249 250 252 253 254 255 256 257 258 258 257 255 254 252 252 252 253 254 255 257 258 259 258 257 256 254 251 248
269 267 264 261 260 259 258 256 254 253 252 251 251 250 248 249 252 255 257 256 255 254 253 253 252 250 248 245 244 244 243 244 244 243 243 242 241 241 244 246 246 245 245 245 244 244 244 244 245 245 244 244 244 244 243 243 244 245 246 247 248 249 251 252 253 254 255 256 257 257 257 258 257 256 254 253 253 254 254 255 256 257 256 255 254 253 252 250
267 266 264 261 259 258 257 255 254 252 251 251 251 250 249 250 253 255 256 255 252 251 251 251 250 249 248 246 245 244 244 243 243 243 242 242 241 240 241 243 245 245 245 245 245 245 245 245 246 247 246 245 245 245 245 244 245 246 248 249 249 250 252 253 254 254 254 255 256 257 258 259 259 258 256 254 254 254 254 254 254 255 254 254 254 253 253 253
267 264 262 260 258 257 256 254 253 252 250 249 249 250 250 250 252 252 252 251 251 250 250 251 250 248 248 247 246 244 244 243 242 242 240 240 240 240 240 241 243 244 245 245 245 245 246 246 247 248 248 247 247 247 247 248 249 249 251 252 252 252 253 253 254 254 254 255 256 257 258 259 259 259 258 255 254 254 255 255 254 254 254 255 256 256 255 255
266 263 261 259 257 255 254 252 250 249 248 247 248 248 249 249 249 250 250 250 249 249 248 249 249 248 247 246 244 243 242 242 242 241 240 239 239 239 240 240 242 243 244 245 245 245 245 246 247 248 249 249 249 249 249 249 250 251 251 252 252 253 253 254 254 255 256 256 257 258 259 259 259 259 258 257 255 254 254 255 256 256 255 255 256 257 258 257
268 263 260 258 256 253 252 250 248 247 246 245 246 246 246 246 247 248 249 248 247 247 247 246 247 247 246 245 244 241 241 241 241 241 241 239 238 239 239 239 240 241 243 244 244 244 245 246 247 248 249 249 249 249 249 248 249 251 252 253 253 253 253 254 254 255 256 257 257 257 258 259 259 259 259 259 257 255 254 254 255 256 256 256 256 257 258 258
271 266 261 258 255 253 250 248 246 245 244 244 244 244 244 244 245 247 248 247 246 246 246 246 245 246 246 246 245 243 240 239 240 241 241 240 238 238 239 240 239 239 241 242 243 244 245 246 246 248 250 250 249 249 249 249 250 251 252 253 254 254 254 253 253 254 255 256 256 256 257 259 259 259 259 259 259 258 257 255 255 255 256 257 257 257 258 258
274 269 264 259 255 253 251 249 246 245 244 244 244 244 243 243 244 245 246 246 245 246 246 245 244 244 245 246 246 245 243 240 238 239 240 240 240 238 238 239 240 240 240 240 241 242 243 245 245 246 249 250 251 250 250 250 250 250 251 252 253 253 253 253 253 253 253 254 255 255 256 258 259 259 260 260 260 260 259 258 257 257 257 258 259 259 259 260
277 272 266 261 256 253 253 250 247 245 243 243 242 241 241 242 242 243 244 244 244 245 246 245 244 243 244 244 245 245 245 243 241 239 239 240 240 240 239 239 240 240 240 241 241 241 242 243 244 244 246 248 249 250 251 251 250 249 250 251 252 252 253 253 253 253 253 254 255 255 255 257 258 259 260 261 261 261 260 260 259 259 258 259 259 260 260 260
280 274 268 263 258 254 252 250 247 243 242 241 240 239 238 239 240 241 243 243 244 244 245 246 245 243 243 243 244 244 245 245 244 242 241 240 240 241 241 240 240 241 241 242 242 243 243 244 243 243 244 246 248 249 250 251 252 252 251 251 252 253 254 254 254 255 255 255 255 256 257 257 258 259 260 260 261 261 261 260 260 260 260 259 260 260 260 260
285 278 271 265 260 255 253 252 248 244 242 242 241 239 238 238 238 240 241 241 242 243 244 245 245 244 243 243 244 244 244 245 245 244 243 242 241 241 242 242 241 241 242 242 244 244 245 245 246 245 245 246 247 248 250 251 252 253 254 254 254 255 256 257 257 257 257 257 257 257 258 258 258 258 259 259 260 260 260 260 260 260 260 260 260 260 260 260
293 284 276 269 263 258 255 252 249 246 244 243 242 241 240 239 239 239 240 241 241 242 243 244 244 244 244 243 243 244 244 244 244 244 244 243 242 241 242 243 243 242 242 243 244 246 246 247 247 248 248 248 248 248 249 251 252 254 256 258 259 258 259 259 260 260 259 259 257 256 256 256 256 256 257 258 258 259 260 260 260 260 260 260 260 260 260 260
302 292 282 274 267 261 257 253 251 249 246 245 242 241 240 240 240 240 240 241 242 242 243 244 244 244 244 244 243 243 243 243 243 243 243 243 243 242 241 242 243 243 244 244 245 246 247 248 248 248 249 250 251 251 251 252 253 255 257 259 261 261 261 260 260 261 261 260 258 256 254 254 254 255 255 256 257 258 259 260 260 260 260 260 260 260 260 260
Height
10618 10618 10618 10618 10618 10619 10620 10620 10621 10623 10624 10626 10627 10629 10631 10633 10635 10637 10640 10643 10646 10648 10650 10653 10656 10659 10662 10665 10668 10670 10673 10676 10679 10683 10686 10688 10691 10694 10697 10698 10700 10705 10709 10712 10713 10715 10720 10723 10724 10724 10724 10726 10729 10731 10735 10738 10739 10738 10738 10738 10737 10739 10741 10742 10743 10743 10746 10750 10751 10754 10757 10758 10761 10763 10763 10762 10761 10760 10759 10758 10758 10759 10760 10760 10758 10757 10755 10755
10611 10610 10610 10610 10610 10611 10611 10612 10613 10614 10616 10617 10619 10621 10623 10625 10627 10629 10632 10635 10638 10640 10642 10645 10648 10651 10654 10657 10660 10663 10666 10669 10672 10676 10678 10681 10683 10686 10688 10689 10692 10697 10701 10704 10705 10707 10711 10715 10715 10715 10716 10718 10720 10723 10727 10731 10731 10730 10731 10730 10727 10731 10735 10735 10735 10735 10738 10742 10743 10745 10748 10751 10753 10754 10754 10752 10751 10751 10750 10749 10752 10753 10753 10752 10750 10749 10747 10747
10603 10603 10603 10603 10602 10602 10603 10603 10604 10606 10607 10609 10611 10613 10615 10617 10619 10621 10624 10627 10630 10632 10635 10637 10640 10643 10646 10650 10653 10655 10659 10662 10666 10669 10671 10673 10676 10678 10680 10681 10685 10689 10693 10696 10697 10699 10703 10706 10707 10707 10709 10710 10713 10716 10719 10722 10723 10723 10724 10720 10718 10724 10729 10728 10727 10728 10730 10733 10735 10737 10741 10745 10745 10745 10744 10743 10742 10742 10742 10743 10745 10745 10744 10743 10742 10741 10740 10739
10597 10596 10595 10595 10595 10594 10595 10595 10596 10597 10599 10601 10603 10605 10606 10608 10611 10613 10616 10620 10622 10625 10627 10630 10633 10636 10639 10642 10645 10648 10652 10655 10659 10661 10663 10666 10668 10671 10673 10674 10677 10682 10685 10687 10690 10692 10695 10698 10698 10699 10700 10703 10706 10709 10712 10715 10717 10718 10717 10711 10710 10718 10721 10719 10719 10720 10723 10725 10727 10729 10733 10737 10736 10735 10734 10735 10735 10735 10736 10737 10736 10736 10735 10735 10734 10733 10731 10730
10590 10589 10588 10587 10587 10587 10587 10587 10588 10589 10591 10593 10595 10597 10598 10601 10603 10606 10609 10612 10615 10617 10620 10623 10626 10628 10631 10635 10637 10640 10644 10648 10651 10654 10656 10659 10661 10663 10665 10666 10670 10674 10676 10679 10682 10685 10688 10690 10690 10691 10692 10696 10700 10702 10704 10708 10712 10712 10708 10702 10703 10710 10711 10711 10713 10713 10716 10718 10719 10721 10724 10727 10727 10726 10727 10728 10728 10729 10729 10729 10728 10728 10727 10726 10724 10724 10723 10723
10583 10582 10581 10580 10580 10580 10580 10580 10581 10582 10583 10585 10587 10589 10591 10593 10596 10598 10601 10604 10607 10610 10613 10616 10618 10621 10624 10627 10630 10633 10637 10641 10644 10647 10649 10651 10653 10655 10657 10659 10662 10666 10668 10671 10674 10677 10680 10681 10682 10683 10685 10689 10694 10695 10697 10702 10707 10705 10698 10694 10696 10701 10702 10705 10708 10707 10709 10710 10709 10712 10714 10717 10718 10719 10720 10721 10721 10721 10721 10721 10722 10721 10719 10717 10714 10714 10716 10717
10577 10575 10574 10573 10573 10573 10573 10573 10573 10574 10575 10577 10579 10581 10583 10586 10588 10591 10594 10597 10600 10603 10606 10608 10611 10614 10617 10619 10622 10625 10629 10634 10637 10639 10641 10644 10646 10648 10650 10652 10655 10658 10661 10663 10666 10669 10671 10672 10673 10676 10678 10683 10688 10688 10691 10696 10700 10696 10690 10687 10690 10694 10694 10697 10701 10699 10700 10700 10700 10703 10705 10707 10710 10712 10714 10715 10715 10713 10713 10715 10715 10713 10711 10708 10705 10706 10709 10710
10570 10569 10567 10566 10566 10566 10566 10566 10566 10567 10568 10570 10572 10574 10576 10579 10581 10584 10587 10590 10592 10595 10598 10601 10604 10606 10609 10612 10615 10618 10622 10627 10630 10632 10634 10636 10639 10641 10643 10646 10648 10651 10654 10656 10658 10661 10662 10663 10665 10669 10672 10677 10681 10681 10685 10690 10692 10687 10681 10681 10685 10687 10684 10687 10691 10690 10691 10693 10694 10696 10697 10698 10702 10706 10709 10709 10707 10706 10707 10708 10707 10704 10702 10699 10698 10700 10702 10703
10564 10563 10561 10560 10560 10560 10560 10560 10560 10561 10562 10563 10565 10567 10569 10571 10574 10577 10580 10582 10585 10588 10590 10593 10596 10599 10602 10605 10608 10611 10615 10620 10623 10625 10626 10629 10632 10635 10637 10639 10641 10643 10646 10648 10650 10652 10654 10656 10659 10663 10666 10670 10673 10674 10678 10683 10682 10677 10673 10676 10679 10678 10675 10677 10683 10683 10684 10687 10689 10690 10689 10691 10695 10700 10702 10701 10700 10700 10700 10700 10698 10695 10692 10691 10691 10694 10696 10697
10559 10557 10555 10554 10554 10554 10554 10554 10554 10555 10556 10557 10558 10560 10562 10564 10567 10570 10572 10575 10578 10580 10583 10586 10588 10591 10595 10598 10601 10605 10609 10613 10615 10617 10619 10622 10625 10628 10630 10632 10634 10636 10638 10640 10642 10645 10647 10651 10654 10657 10659 10662 10664 10666 10670 10672 10671 10668 10667 10671 10672 10670 10668 10670 10674 10676 10677 10681 10684 10684 10683 10685 10690 10693 10694 10693 10694 10694 10692 10691 10689 10686 10684 10684 10686 10688 10690 10690
10553 10552 10550 10549 10548 10548 10548 10548 10548 10549 10550 10551 10552 10553 10555 10558 10560 10562 10565 10567 10570 10573 10575 10578 10581 10584 10588 10590 10595 10598 10601 10606 10608 10609 10612 10615 10618 10620 10623 10625 10627 10628 10631 10633 10636 10639 10642 10645 10648 10649 10651 10654 10656 10657 10661 10662 10663 10662 10661 10664 10664 10662 10661 10662 10665 10668 10672 10675 10677 10678 10679 10681 10684 10685 10685 10686 10688 10686 10684 10682 10680 10678 10677 10678 10681 10683 10683 10682
10548 10546 10545 10543 10543 10542 10542 10542 10542 10543 10544 10545 10546 10547 10549 10551 10553 10556 10558 10560 10563 10566 10568 10571 10574 10577 10580 10584 10588 10590 10594 10599 10600 10601 10605 10607 10610 10612 10615 10618 10619 10621 10624 10627 10631 10634 10636 10639 10640 10641 10643 10646 10647 10648 10652 10654 10656 10655 10655 10657 10657 10655 10655 10654 10656 10661 10667 10669 10670 10673 10676 10677 10676 10677 10678 10680 10681 10678 10676 10675 10673 10671 10671 10673 10676 10678 10675 10674
10543 10541 10540 10538 10538 10537 10537 10537 10537 10538 10539 10540 10540 10541 10543 10545 10547 10549 10551 10554 10556 10559 10562 10564 10567 10570 10574 10578 10580 10583 10589 10591 10591 10594 10598 10600 10603 10605 10608 10610 10612 10615 10618 10622 10625 10627 10630 10631 10632 10633 10636 10637 10638 10641 10645 10647 10649 10649 10649 10650 10649 10649 10648 10646 10649 10656 10660 10663 10665 10667 10671 10669 10666 10671 10673 10673 10674 10670 10668 10667 10664 10663 10665 10668 10671 10670 10668 10666
10538 10536 10535 10533 10532 10532 10532 10531 10532 10533 10533 10534 10535 10536 10537 10539 10541 10543 10545 10547 10550 10553 10555 10557 10561 10564 10568 10570 10572 10577 10582 10583 10584 10587 10591 10593 10596 10598 10600 10603 10606 10609 10612 10616 10618 10620 10623 10624 10625 10626 10628 10628 10630 10634 10637 10640 10641 10642 10643 10643 10642 10642 10640 10640 10644 10650 10653 10656 10659 10662 10665 10660 10657 10664 10666 10667 10668 10663 10660 10659 10656 10657 10660 10662 10664 10663 10661 10660
10533 10531 10530 10529 10528 10527 10527 10527 10527 10527 10528 10528 10529 10530 10532 10533 10535 10537 10539 10541 10543 10546 10548 10551 10555 10558 10561 10563 10565 10571 10575 10575 10577 10581 10583 10586 10589 10591 10593 10596 10599 10603 10606 10609 10611 10614 10616 10617 10616 10618 10619 10620 10624 10627 10629 10632 10633 10634 10636 10635 10635 10635 10633 10635 10639 10643 10645 10649 10653 10656 10658 10652 10648 10656 10659 10661 10662 10656 10654 10653 10650 10651 10653 10655 10657 10656 10655 10654
10528 10526 10525 10524 10523 10522 10522 10522 10522 10522 10522 10523 10524 10525 10526 10527 10529 10532 10533 10535 10537 10540 10542 10545 10549 10552 10555 10556 10559 10565 10568 10569 10570 10573 10576 10579 10582 10584 10587 10590 10593 10596 10600 10602 10605 10607 10608 10608 10608 10611 10612 10614 10617 10620 10622 10625 10625 10626 10628 10628 10628 10627 10627 10631 10634 10636 10637 10642 10646 10648 10650 10645 10641 10647 10652 10654 10654 10650 10648 10646 10645 10646 10647 10649 10650 10650 10650 10648
10523 10521 10520 10519 10518 10517 10517 10517 10516 10516 10517 10517 10518 10519 10520 10522 10524 10526 10528 10529 10531 10533 10536 10540 10543 10546 10549 10550 10553 10558 10561 10562 10563 10566 10569 10572 10575 10578 10581 10584 10586 10589 10592 10595 10598 10599 10600 10601 10602 10604 10606 10608 10610 10613 10615 10616 10617 10618 10620 10622 10623 10622 10622 10625 10627 10628 10630 10634 10639 10641 10642 10639 10636 10640 10644 10647 10646 10643 10641 10640 10639 10639 10640 10642 10644 10644 10644 10642
10518 10517 10516 10515 10514 10513 10512 10512 10511 10511 10512 10512 10513 10514 10515 10517 10518 10520 10521 10523 10525 10527 10531 10534 10537 10540 10542 10544 10547 10551 10554 10556 10557 10560 10563 10566 10570 10572 10575 10578 10580 10582 10586 10588 10590 10593 10594 10595 10596 10598 10599 10601 10603 10605 10607 10608 10610 10613 10616 10617 10617 10616 10615 10617 10620 10623 10624 10626 10629 10632 10634 10634 10632 10634 10637 10639 10638 10636 10634 10634 10634 10634 10635 10637 10638 10639 10638 10636
10513 10512 10511 10510 10509 10508 10508 10507 10507 10507 10507 10507 10508 10509 10510 10511 10512 10514 10515 10517 10520 10522 10526 10528 10530 10533 10535 10538 10540 10544 10548 10550 10552 10555 10558 10561 10564 10567 10569 10571 10573 10576 10579 10581 10584 10586 10587 10588 10589 10590 10592 10593 10596 10599 10601 10604 10607 10609 10610 10609 10609 10608 10608 10610 10614 10617 10618 10618 10620 10623 10627 10628 10627 10628 10630 10632 10631 10628 10627 10628 10628 10629 10630 10632 10633 10633 10632 10630
10508 10508 10507 10506 10505 10504 10503 10503 10502 10502 10502 10502 10503 10503 10504 10505 10507 10509 10511 10513 10515 10517 10520 10522 10525 10528 10530 10532 10534 10537 10541 10544 10546 10549 10552 10555 10558 10561 10563 10565 10567 10570 10573 10576 10578 10580 10581 10582 10582 10583 10586 10589 10592 10594 10596 10599 10601 10602 10601 10600 10601 10601 10602 10605 10608 10610 10610 10610 10612 10616 10620 10621 10621 10622 10624 10624 10623 10621 10620 10622 10624 10625 10625 10627 10629 10628 10626 10625
10504 10503 10503 10502 10501 10500 10499 10498 10498 10498 10498 10498 10498 10498 10499 10501 10503 10505 10506 10508 10510 10512 10515 10517 10520 10523 10524 10526 10529 10531 10535 10538 10541 10544 10546 10549 10552 10555 10557 10559 10562 10565 10567 10570 10571 10573 10574 10575 10576 10579 10583 10585 10586 10588 10590 10593 10594 10594 10593 10593 10593 10595 10597 10599 10602 10604 10604 10604 10607 10611 10613 10614 10614 10616 10617 10617 10616 10615 10616 10617 10619 10619 10620 10622 10624 10623 10621 10618
10499 10499 10498 10498 10497 10496 10495 10494 10493 10493 10493 10493 10493 10494 10495 10496 10498 10500 10501 10503 10505 10506 10509 10512 10515 10517 10519 10522 10524 10526 10530 10533 10537 10539 10541 10544 10547 10549 10551 10553 10556 10559 10561 10563 10564 10567 10569 10570 10573 10576 10577 10578 10580 10582 10584 10586 10586 10586 10586 10586 10588 10589 10591 10593 10595 10597 10599 10599 10602 10605 10607 10607 10608 10610 10611 10610 10610 10611 10611 10612 10613 10615 10616 10617 10618 10619 10616 10613
10495 10494 10493 10493 10493 10492 10490 10490 10489 10489 10489 10488 10488 10489 10490 10491 10493 10495 10496 10497 10499 10500 10503 10506 10509 10512 10514 10516 10518 10521 10525 10529 10532 10533 10535 10538 10541 10543 10545 10548 10551 10552 10554 10557 10559 10562 10564 10567 10569 10570 10571 10572 10574 10576 10578 10578 10578 10579 10580 10580 10581 10583 10585 10587 10589 10590 10593 10594 10596 10600 10601 10601 10602 10604 10605 10605 10605 10605 10606 10607 10609 10610 10611 10612 10614 10614 10611 10608
10490 10490 10489 10488 10488 10487 10486 10486 10485 10485 10484 10484 10484 10485 10486 10487 10489 10490 10490 10492 10494 10495 10497 10501 10504 10505 10509 10511 10513 10516 10520 10523 10525 10527 10530 10533 10535 10537 10540 10544 10546 10546 10548 10552 10554 10557 10560 10562 10563 10564 10566 10567 10569 10570 10571 10571 10571 10572 10573 10574 10575 10578 10579 10581 10582 10584 10587 10589 10591 10594 10596 10595 10596 10597 10599 10601 10600 10600 10600 10602 10604 10606 10608 10609 10609 10609 10606 10605
10485 10485 10484 10484 10483 10483 10482 10481 10480 10480 10480 10479 10480 10482 10483 10484 10484 10484 10486 10487 10489 10489 10491 10496 10499 10500 10504 10506 10507 10511 10515 10516 10518 10522 10525 10528 10530 10532 10536 10539 10539 10540 10544 10547 10550 10553 10556 10557 10558 10559 10561 10562 10563 10564 10565 10565 10566 10566 10567 10568 10571 10574 10575 10576 10577 10579 10582 10584 10587 10590 10591 10591 10590 10591 10593 10595 10595 10595 10596 10598 10600 10602 10603 10604 10604 10604 10604 10602
10481 10480 10479 10479 10479 10478 10478 10477 10477 10476 10475 10475 10477 10478 10479 10479 10479 10480 10482 10482 10483 10484 10487 10491 10494 10496 10499 10498 10500 10507 10509 10510 10513 10516 10520 10523 10525 10527 10531 10532 10532 10536 10539 10542 10546 10548 10550 10551 10553 10554 10555 10557 10557 10558 10559 10560 10560 10560 10562 10564 10567 10570 10571 10571 10572 10574 10576 10579 10582 10584 10585 10587 10587 10585 10587 10589 10591 10592 10593 10594 10595 10597 10597 10598 10598 10599 10601 10599
10476 10475 10474 10474 10474 10474 10473 10473 10473 10472 10471 10471 10473 10474 10475 10475 10474 10476 10477 10477 10478 10480 10482 10486 10489 10491 10492 10492 10496 10501 10503 10505 10508 10510 10514 10517 10520 10523 10525 10525 10528 10532 10534 10538 10541 10543 10544 10546 10548 10550 10551 10551 10552 10553 10554 10555 10555 10555 10557 10560 10564 10565 10566 10567 10568 10569 10571 10574 10576 10578 10580 10583 10583 10581 10581 10584 10586 10588 10589 10589 10590 10591 10591 10591 10593 10595 10596 10596
10471 10470 10469 10469 10469 10469 10468 10468 10468 10467 10467 10468 10469 10470 10470 10470 10470 10471 10473 10472 10472 10475 10477 10480 10483 10485 10487 10488 10490 10494 10497 10501 10503 10504 10508 10512 10516 10518 10519 10520 10523 10527 10531 10534 10536 10537 10540 10542 10543 10545 10545 10545 10546 10548 10550 10551 10551 10551 10553 10556 10559 10561 10562 10563 10563 10564 10566 10568 10570 10572 10575 10578 10579 10577 10577 10580 10581 10583 10584 10585 10585 10585 10585 10585 10586 10589 10591 10593
10465 10465 10464 10464 10464 10464 10464 10464 10464 10463 10462 10463 10465 10465 10466 10466 10465 10467 10468 10467 10467 10469 10472 10475 10477 10480 10482 10483 10484 10487 10492 10496 10497 10499 10503 10507 10510 10511 10513 10515 10519 10523 10527 10528 10530 10532 10534 10536 10538 10539 10539 10540 10541 10543 10545 10546 10546 10547 10549 10551 10554 10557 10557 10558 10559 10560 10562 10564 10565 10567 10570 10572 10573 10573 10573 10576 10578 10578 10579 10579 10580 10580 10579 10579 10580 10583 10586 10588
10460 10459 10458 10458 10459 10458 10458 10459 10460 10459 10458 10459 10460 10460 10461 10461 10461 10463 10464 10462 10462 10465 10468 10470 10473 10475 10478 10478 10478 10482 10486 10490 10492 10496 10499 10501 10504 10506 10508 10512 10516 10519 10522 10522 10523 10526 10528 10530 10532 10533 10534 10535 10536 10537 10540 10541 10541 10543 10544 10546 10549 10551 10552 10553 10554 10556 10557 10559 10560 10562 10564 10566 10568 10568 10569 10571 10573 10574 10575 10575 10575 10575 10574 10574 10575 10578 10580 10582
10455 10454 10452 10452 10454 10453 10452 10455 10456 10454 10453 10455 10454 10456 10458 10457 10458 10459 10457 10455 10458 10461 10464 10467 10469 10471 10474 10474 10474 10477 10481 10485 10489 10492 10494 10496 10498 10500 10503 10506 10510 10513 10515 10516 10516 10518 10521 10524 10526 10528 10528 10530 10531 10532 10534 10536 10537 10538 10539 10541 10543 10546 10547 10547 10549 10551 10553 10554 10555 10557 10559 10561 10563 10564 10565 10566 10568 10569 10570 10570 10570 10569 10569 10570 10571 10573 10575 10577
10449 10449 10447 10446 10448 10448 10448 10451 10451 10448 10449 10450 10450 10451 10453 10453 10454 10453 10449 10449 10454 10457 10460 10464 10466 10467 10469 10470 10470 10473 10476 10480 10483 10485 10488 10490 10493 10495 10497 10500 10503 10507 10510 10510 10509 10511 10516 10520 10521 10523 10523 10524 10526 10527 10529 10531 10532 10532 10534 10536 10538 10540 10542 10542 10543 10546 10547 10548 10550 10552 10554 10556 10558 10560 10560 10560 10562 10563 10564 10565 10565 10565 10565 10565 10566 10568 10570 10573
10444 10444 10442 10441 10441 10442 10445 10447 10446 10443 10444 10445 10445 10446 10448 10450 10449 10445 10442 10444 10449 10454 10457 10460 10461 10462 10464 10465 10465 10468 10471 10474 10475 10478 10482 10485 10487 10489 10490 10494 10498 10501 10504 10505 10504 10505 10510 10514 10517 10517 10517 10518 10520 10521 10522 10524 10526 10527 10529 10532 10533 10535 10537 10537 10538 10539 10541 10542 10544 10546 10549 10552 10554 10556 10555 10554 10555 10556 10558 10560 10561 10561 10561 10561 10561 10562 10564 10567
10438 10438 10437 10435 10435 10437 10441 10442 10440 10438 10438 10440 10440 10441 10444 10445 10440 10436 10437 10441 10447 10451 10454 10456 10457 10458 10460 10460 10461 10464 10466 10468 10470 10472 10475 10479 10481 10482 10485 10488 10492 10494 10496 10499 10499 10500 10504 10508 10511 10511 10512 10513 10514 10514 10516 10518 10521 10523 10524 10526 10528 10529 10530 10531 10532 10533 10534 10536 10538 10541 10544 10547 10550 10551 10550 10549 10548 10549 10552 10555 10556 10557 10557 10556 10556 10557 10559 10562
10431 10432 10431 10430 10430 10431 10434 10435 10433 10432 10432 10434 10435 10437 10439 10436 10432 10431 10435 10440 10444 10447 10449 10450 10451 10453 10455 10455 10457 10460 10461 10463 10465 10467 10470 10473 10475 10477 10479 10482 10485 10487 10490 10493 10494 10495 10497 10501 10504 10505 10506 10507 10507 10508 10510 10513 10516 10518 10519 10520 10521 10522 10523 10524 10526 10527 10529 10531 10533 10536 10539 10543 10545 10545 10545 10545 10543 10542 10544 10548 10550 10551 10552 10551 10551 10552 10554 10556
10424 10425 10425 10425 10424 10424 10426 10428 10427 10426 10426 10428 10432 10433 10431 10427 10427 10429 10432 10437 10440 10441 10443 10444 10446 10448 10450 10452 10454 10456 10457 10459 10461 10463 10466 10469 10470 10472 10474 10476 10479 10482 10485 10488 10489 10490 10491 10494 10497 10498 10500 10501 10501 10502 10505 10507 10510 10512 10513 10513 10514 10516 10517 10518 10520 10522 10524 10526 10528 10531 10535 10538 10539 10539 10541 10541 10539 10537 10537 10540 10542 10544 10546 10546 10546 10547 10549 10551
10417 10419 10419 10418 10417 10417 10419 10420 10421 10421 10420 10423 10428 10428 10423 10421 10423 10424 10428 10433 10435 10437 10438 10439 10441 10444 10446 10447 10450 10452 10453 10454 10457 10459 10462 10464 10465 10467 10470 10471 10474 10477 10480 10482 10483 10485 10485 10486 10489 10492 10493 10494 10495 10497 10499 10501 10504 10507 10508 10509 10509 10510 10512 10513 10514 10517 10519 10520 10522 10526 10529 10532 10534 10535 10535 10535 10534 10532 10531 10532 10535 10537 10539 10540 10541 10543 10545 10547
10410 10412 10412 10410 10409 10409 10412 10413 10414 10415 10414 10418 10423 10421 10417 10416 10416 10418 10423 10428 10430 10433 10433 10434 10437 10439 10441 10443 10445 10447 10449 10450 10453 10455 10457 10460 10462 10463 10464 10466 10469 10472 10474 10476 10477 10478 10479 10480 10482 10485 10486 10488 10489 10492 10493 10495 10499 10501 10502 10503 10504 10504 10507 10508 10509 10511 10513 10514 10517 10521 10523 10526 10528 10529 10529 10529 10528 10527 10526 10526 10528 10531 10533 10534 10536 10539 10541 10542
10402 10405 10404 10402 10401 10401 10404 10406 10407 10408 10409 10413 10415 10413 10411 10409 10408 10413 10419 10422 10426 10429 10429 10429 10432 10434 10436 10438 10439 10441 10444 10445 10448 10451 10453 10456 10458 10458 10458 10460 10464 10467 10468 10469 10470 10472 10474 10474 10476 10478 10480 10481 10483 10486 10488 10490 10493 10495 10495 10497 10499 10499 10501 10503 10504 10505 10507 10508 10510 10514 10516 10518 10520 10522 10523 10523 10523 10522 10522 10522 10523 10525 10527 10529 10530 10533 10535 10537
10394 10395 10395 10394 10392 10392 10395 10398 10399 10401 10404 10406 10405 10404 10405 10402 10401 10407 10413 10418 10421 10423 10423 10424 10427 10429 10431 10433 10434 10436 10438 10439 10442 10446 10448 10451 10453 10453 10453 10454 10458 10461 10462 10463 10465 10467 10469 10470 10470 10471 10473 10475 10476 10479 10483 10485 10487 10489 10489 10491 10493 10494 10496 10497 10498 10499 10501 10502 10504 10506 10507 10509 10512 10516 10517 10518 10517 10517 10517 10517 10518 10520 10522 10523 10524 10526 10528 10530
10386 10385 10384 10385 10384 10383 10386 10390 10392 10394 10396 10396 10395 10396 10398 10396 10397 10402 10408 10413 10416 10417 10417 10419 10422 10424 10425 10427 10428 10429 10431 10433 10437 10440 10443 10445 10447 10448 10448 10448 10452 10455 10456 10457 10460 10462 10464 10464 10464 10464 10466 10468 10469 10473 10477 10479 10481 10483 10483 10485 10487 10489 10490 10491 10493 10494 10496 10496 10497 10499 10500 10501 10505 10509 10510 10510 10510 10510 10511 10511 10512 10513 10515 10516 10517 10519 10520 10522
10376 10375 10373 10373 10374 10374 10377 10381 10384 10386 10387 10388 10387 10387 10389 10391 10394 10397 10401 10406 10409 10411 10411 10413 10416 10418 10419 10421 10423 10424 10426 10428 10430 10433 10436 10438 10441 10442 10443 10443 10446 10449 10450 10452 10455 10457 10458 10458 10457 10457 10460 10462 10464 10467 10471 10473 10475 10477 10478 10479 10482 10483 10485 10486 10486 10488 10489 10489 10491 10493 10494 10496 10499 10501 10502 10503 10504 10504 10504 10504 10505 10506 10508 10509 10511 10513 10514 10515
10365 10364 10361 10362 10364 10365 10368 10372 10374 10377 10378 10379 10378 10378 10382 10387 10389 10389 10393 10398 10402 10404 10405 10406 10409 10412 10414 10415 10417 10418 10420 10422 10424 10425 10428 10431 10433 10435 10437 10438 10440 10442 10444 10447 10449 10451 10451 10451 10450 10450 10453 10456 10458 10462 10466 10468 10470 10472 10472 10474 10476 10477 10478 10479 10479 10480 10482 10484 10486 10487 10488 10490 10492 10493 10494 10496 10498 10498 10498 10498 10499 10500 10502 10503 10504 10506 10507 10508
10354 10353 10350 10350 10354 10356 10357 10361 10364 10365 10368 10369 10369 10370 10376 10381 10381 10381 10385 10391 10395 10397 10398 10399 10402 10406 10408 10409 10410 10412 10413 10415 10417 10417 10420 10423 10425 10428 10431 10433 10434 10436 10438 10441 10443 10445 10445 10444 10444 10444 10446 10449 10453 10457 10460 10462 10462 10463 10464 10466 10468 10469 10470 10472 10472 10473 10475 10478 10480 10482 10482 10483 10484 10485 10486 10488 10491 10492 10492 10492 10493 10494 10496 10497 10498 10499 10500 10501
10343 10342 10339 10340 10344 10344 10345 10349 10351 10354 10357 10358 10359 10363 10368 10372 10372 10373 10377 10383 10387 10388 10389 10392 10396 10398 10400 10402 10403 10406 10407 10409 10410 10410 10413 10416 10418 10421 10423 10425 10428 10430 10431 10434 10436 10438 10438 10436 10437 10439 10439 10443 10447 10449 10451 10453 10454 10455 10456 10458 10460 10462 10463 10465 10466 10467 10469 10472 10474 10476 10475 10476 10477 10478 10478 10480 10482 10484 10485 10486 10487 10488 10488 10490 10491 10492 10493 10493
10332 10332 10330 10331 10333 10333 10333 10337 10340 10343 10346 10348 10350 10355 10360 10363 10365 10365 10369 10375 10378 10379 10381 10386 10390 10392 10393 10395 10396 10399 10401 10403 10403 10404 10406 10409 10412 10414 10415 10417 10421 10423 10425 10427 10428 10430 10430 10429 10431 10433 10433 10435 10438 10440 10442 10445 10448 10449 10449 10450 10452 10454 10456 10457 10459 10461 10463 10465 10468 10469 10469 10469 10469 10470 10471 10472 10473 10475 10477 10479 10481 10481 10481 10482 10483 10484 10485 10485
10324 10323 10322 10323 10324 10323 10323 10327 10331 10333 10336 10339 10343 10348 10351 10355 10357 10358 10361 10366 10369 10371 10373 10378 10383 10385 10387 10388 10390 10392 10395 10397 10397 10397 10399 10402 10405 10407 10409 10411 10413 10416 10418 10419 10420 10422 10422 10422 10424 10426 10426 10427 10429 10431 10434 10437 10439 10441 10441 10442 10443 10445 10448 10450 10451 10453 10455 10458 10460 10462 10463 10463 10462 10462 10463 10464 10465 10467 10469 10471 10472 10473 10474 10474 10474 10476 10477 10477
10317 10316 10315 10315 10316 10316 10315 10318 10322 10325 10327 10330 10334 10338 10342 10345 10348 10349 10352 10357 10361 10363 10366 10370 10375 10379 10380 10382 10383 10385 10388 10389 10390 10392 10394 10396 10397 10400 10402 10404 10406 10408 10411 10411 10412 10413 10414 10415 10417 10419 10419 10419 10421 10423 10424 10426 10429 10432 10434 10434 10435 10438 10440 10442 10443 10445 10447 10450 10452 10454 10456 10456 10455 10456 10456 10456 10457 10458 10460 10461 10463 10464 10465 10466 10466 10467 10468 10468
10310 10309 10309 10308 10309 10309 10308 10310 10313 10316 10318 10320 10324 10328 10332 10336 10339 10341 10345 10349 10353 10356 10358 10362 10367 10371 10373 10375 10377 10379 10381 10382 10384 10386 10388 10390 10391 10393 10395 10398 10400 10401 10403 10403 10403 10404 10406 10407 10409 10411 10412 10412 10413 10415 10416 10418 10420 10423 10425 10427 10429 10431 10432 10433 10435 10437 10440 10443 10445 10446 10448 10448 10449 10449 10449 10449 10449 10449 10450 10451 10453 10454 10456 10457 10457 10458 10459 10460
10305 10304 10303 10303 10302 10302 10303 10304 10306 10309 10311 10313 10316 10320 10324 10328 10331 10334 10337 10341 10344 10347 10351 10354 10358 10363 10366 10368 10370 10372 10373 10375 10377 10379 10381 10383 10385 10387 10388 10391 10393 10395 10396 10396 10396 10397 10399 10399 10401 10404 10405 10405 10406 10407 10409 10410 10411 10413 10415 10418 10422 10424 10424 10425 10427 10429 10431 10434 10437 10439 10439 10440 10441 10442 10441 10440 10439 10439 10440 10441 10443 10444 10445 10446 10447 10449 10450 10450
10301 10299 10299 10298 10297 10297 10298 10298 10300 10302 10304 10307 10310 10314 10317 10321 10324 10327 10329 10332 10335 10339 10343 10346 10349 10353 10357 10360 10363 10364 10366 10368 10370 10372 10374 10377 10379 10381 10382 10383 10385 10387 10388 10389 10389 10390 10391 10392 10394 10396 10397 10398 10399 10400 10402 10403 10404 10406 10407 10410 10414 10417 10418 10418 10418 10419 10421 10424 10428 10430 10430 10431 10432 10432 10432 10431 10430 10429 10430 10431 10432 10433 10434 10435 10436 10437 10438 10439
10297 10295 10295 10294 10293 10293 10293 10293 10295 10297 10299 10301 10305 10308 10311 10314 10317 10319 10322 10325 10328 10332 10336 10338 10341 10345 10348 10351 10354 10356 10358 10360 10362 10364 10367 10370 10372 10374 10376 10376 10378 10380 10381 10383 10384 10384 10384 10385 10387 10389 10390 10391 10393 10394 10396 10397 10400 10402 10403 10404 10406 10408 10409 10410 10410 10410 10412 10414 10417 10420 10421 10422 10422 10423 10422 10422 10421 10421 10420 10420 10421 10422 10423 10424 10424 10425 10427 10428